This demonstration page uses our WeatherBlox Daily Observations layout. Learn more.

Left ArrowRight Arrow

Hourly Observations for February 16, 2016

Temp ( °F °C ) Dew Point ( °F °C ) Humidity (%) Winds ( mph kmh ) Pressure ( in mb ) Visibility ( mi km ) Precip ( " mm )
12:53 am 00:53 Clear 26 -3.3 24 -4.4 92 92 W 5 7 29.96 1015 10 16 0.00 0.00
1:53 am 01:53 Clear 27 -2.8 25 -3.9 92 92 Calm 29.93 1014 10 16 0.00 0.00
2:53 am 02:53 Mostly Cloudy 30 -1.1 27 -2.8 88 88 ENE 5 7 29.90 1013 10 16 0.00 0.00
3:53 am 03:53 Cloudy 29 -1.7 27 -2.8 92 92 ESE 3 6 29.88 1012 10 16 0.00 0.00
4:53 am 04:53 Cloudy with Light Wintry Mix 30 -1.1 29 -1.7 96 96 ENE 5 7 29.86 1011 10 16 0.01 0.25
5:15 am 05:15 Cloudy with Light Freezing Rain 31 -0.6 30 -1.1 96 96 E 6 9 29.88 1012 9 14 0.01 0.25
5:44 am 05:44 Cloudy with Light Wintry Mix 30 -1 28 -2 93 93 E 10 17 29.85 1011 10 16 0.00 0.00
5:53 am 05:53 Cloudy with Light Wintry Mix 30 -1.1 29 -1.7 96 96 E 13 20 29.83 1010 10 16 0.01 0.25
6:53 am 06:53 Partly Cloudy with Light Wintry Mix 29 -1.7 28 -2.2 96 96 ENE 7 11 29.80 1009 10 16 0.00 0.03
7:53 am 07:53 Sunny 30 -1.1 29 -1.7 96 96 ENE 8 13 29.78 1009 10 16 0.00 0.03
8:53 am 08:53 Sunny 32 0 31 -0.6 96 96 Calm 29.78 1009 10 16 0.00 0.00
9:53 am 09:53 Sunny 38 3.3 35 1.7 89 89 WNW 8 13 29.78 1009 10 16 0.00 0.00
10:53 am 10:53 Sunny 47 8.3 36 2.2 66 66 W 14 22 29.78 1009 10 16 0.00 0.00
11:53 am 11:53 Sunny 54 12.2 35 1.7 49 49 W 22 35 29.78 1009 10 16 0.00 0.00
12:53 pm 12:53 Mostly Sunny 56 13.3 31 -0.6 39 39 NW 28 44 29.79 1009 10 16 0.00 0.00
1:53 pm 13:53 Sunny 55 12.8 27 -2.8 34 34 NW 24 39 29.80 1009 10 16 0.00 0.00
2:53 pm 14:53 Mostly Cloudy 54 12.2 27 -2.8 35 35 NW 15 24 29.81 1009 10 16 0.00 0.00
3:53 pm 15:53 Partly Cloudy 53 11.7 28 -2.2 38 38 NNW 15 24 29.83 1010 10 16 0.00 0.00
4:53 pm 16:53 Mostly Sunny 50 10 23 -5 35 35 NNW 8 13 29.84 1011 10 16 0.00 0.00
5:53 pm 17:53 Cloudy 43 6.1 23 -5 45 45 WNW 3 6 29.86 1011 10 16 0.00 0.00
6:53 pm 18:53 Cloudy 35 1.7 25 -3.9 67 67 S 5 7 29.90 1012 10 16 0.00 0.00
7:53 pm 19:53 Clear 35 1.7 24 -4.4 64 64 Calm 29.91 1013 10 16 0.00 0.00
8:53 pm 20:53 Clear 32 0 23 -5 69 69 E 3 6 29.91 1013 10 16 0.00 0.00
9:53 pm 21:53 Clear 28 -2.2 22 -5.6 78 78 WNW 3 6 29.91 1013 10 16 0.00 0.00
10:53 pm 22:53 Clear 27 -2.8 22 -5.6 81 81 Calm 29.90 1012 10 16 0.00 0.00
11:53 pm 23:53 Clear 24 -4.4 21 -6.1 88 88 Calm 29.88 1012 10 16 0.00 0.00

Powered by AerisWeather